Temp_Advection
nan nan nan nan nan nan nan nan nan nan nan nan nan nan nan nan nan nan nan nan nan nan
nan 0 0 0 -0 -0 -0 -0 0 0 0 0 0 1 0 -0 -0 -0 -0 -0 -0 nan
nan 0 0 0 0 -0 -0 -0 0 0 0 0 1 1 1 0 0 -0 -0 -0 -0 nan
nan 0 0 0 -0 -0 -0 -0 -0 0 0 0 0 0 0 0 1 0 0 0 0 nan
nan 0 0 0 0 0 -0 -0 -0 -0 -0 0 0 0 0 0 0 0 0 0 0 nan
nan -0 0 0 0 0 0 0 0 -0 -0 0 0 0 0 0 0 0 0 0 -0 nan
nan -0 -0 -0 -0 0 0 0 0 -0 -0 -0 0 0 0 0 0 0 0 0 0 nan
nan -0 -0 -0 0 0 0 0 0 0 0 -0 -0 0 0 -0 0 0 0 0 0 nan
nan 0 0 -0 0 0 0 0 0 0 0 0 0 -0 0 -0 -0 0 0 0 0 nan
nan -0 0 -0 -0 -0 -0 0 0 0 0 0 0 -0 -0 -0 -0 -0 0 0 0 nan
nan 0 0 0 0 0 0 -0 -0 0 0 -0 0 0 -0 -0 -0 -0 0 0 0 nan
nan -0 0 0 0 0 0 0 0 0 0 0 0 0 0 -0 -0 -0 0 0 0 nan
nan -1 -0 -0 -0 -0 -0 -0 0 0 1 0 0 1 0 0 -0 -0 -0 0 0 nan
nan nan nan nan nan nan nan nan nan nan nan nan nan nan nan nan nan nan nan nan nan nan
Wind_Speed
21 19 20 20 19 19 18 17 16 16 16 16 15 12 12 12 12 13 15 16 16 17
19 19 20 20 19 18 18 18 16 16 16 15 15 13 13 13 14 14 15 15 18 17
17 18 18 18 18 19 18 18 17 17 17 16 15 15 16 15 14 14 15 15 16 17
17 18 19 19 18 18 18 18 18 18 18 18 17 16 16 16 15 16 18 17 20 19
17 17 18 18 18 18 18 17 18 18 18 18 18 18 18 18 18 18 17 18 17 18
17 17 17 17 18 18 18 18 18 19 19 19 18 18 18 19 18 18 19 20 21 23
16 16 17 18 18 18 18 19 19 19 19 19 19 19 19 19 18 18 18 19 20 20
14 16 17 18 18 19 20 20 20 20 20 20 20 19 20 20 20 19 19 19 19 19
14 15 15 16 17 18 19 19 21 21 21 20 20 20 20 20 21 21 20 20 19 19
17 16 15 15 16 17 19 20 21 22 22 22 21 19 20 20 21 21 20 20 19 20
16 17 17 18 19 19 20 21 22 22 21 23 21 20 21 21 21 22 21 20 20 20
20 20 20 20 20 21 23 23 23 23 23 23 23 22 22 23 24 23 21 20 20 20
20 20 21 21 21 21 22 24 25 25 24 24 25 22 22 24 25 25 21 20 20 19
21 21 21 22 23 24 25 26 26 26 26 25 24 24 24 24 26 26 24 23 20 19
Wind_Direction
315 307 309 313 312 317 318 319 317 314 314 316 313 300 295 291 287 278 273 277 282 284
309 310 310 310 310 313 315 314 312 311 312 314 309 304 296 294 294 291 287 283 280 284
308 308 308 308 311 311 313 312 312 312 312 311 312 304 292 285 283 282 284 292 290 289
319 312 309 309 309 308 308 311 313 314 312 311 310 310 308 307 297 284 285 280 280 281
319 315 310 310 309 306 306 307 308 310 310 310 308 305 303 301 301 300 299 299 303 302
314 311 309 309 310 308 304 305 307 307 307 306 305 302 301 299 299 299 298 298 300 304
320 311 307 306 307 306 304 304 305 304 304 304 303 303 301 299 298 298 298 299 301 303
316 319 313 311 309 307 305 305 303 300 301 302 301 302 300 301 301 302 301 301 302 303
321 318 317 314 311 312 309 305 300 299 298 297 297 300 300 301 302 304 304 303 302 302
335 331 326 318 315 317 312 307 303 299 295 295 296 299 299 298 297 298 297 297 299 300
336 332 328 322 316 313 310 308 308 303 296 291 291 290 289 289 288 287 290 292 296 299
339 335 333 328 322 317 311 309 309 305 299 293 290 289 289 289 290 291 291 289 289 294
338 331 326 322 322 319 312 307 306 305 303 298 292 286 283 284 285 284 288 285 286 288
336 334 332 327 326 321 316 312 308 305 302 296 292 290 282 277 277 280 280 277 278 281
Height
1483 1481 1479 1477 1474 1472 1469 1467 1465 1463 1461 1459 1456 1455 1454 1453 1453 1452 1452 1451 1451 1449
1479 1477 1476 1474 1471 1469 1467 1464 1462 1460 1458 1456 1454 1452 1451 1450 1449 1448 1447 1446 1445 1444
1475 1473 1472 1470 1468 1466 1464 1462 1459 1457 1455 1453 1451 1450 1448 1446 1445 1444 1443 1442 1440 1438
1472 1470 1468 1466 1464 1462 1460 1458 1456 1454 1452 1450 1448 1446 1444 1442 1441 1439 1438 1437 1435 1433
1468 1466 1464 1462 1461 1458 1456 1454 1452 1450 1448 1446 1444 1442 1440 1438 1437 1435 1433 1431 1429 1427
1464 1462 1460 1458 1456 1454 1452 1450 1448 1446 1444 1442 1440 1438 1436 1434 1432 1430 1428 1426 1424 1422
1460 1458 1457 1455 1453 1451 1449 1446 1444 1442 1440 1438 1436 1434 1432 1429 1427 1425 1423 1421 1419 1417
1456 1454 1452 1450 1448 1446 1444 1442 1440 1437 1436 1434 1431 1429 1427 1425 1422 1420 1418 1416 1414 1412
1452 1450 1448 1445 1443 1442 1440 1437 1435 1433 1430 1428 1427 1425 1422 1420 1417 1416 1414 1411 1410 1407
1449 1446 1444 1442 1440 1437 1435 1432 1429 1427 1425 1423 1421 1420 1417 1415 1412 1410 1408 1406 1404 1401
1445 1442 1440 1437 1435 1432 1429 1427 1424 1421 1419 1417 1415 1414 1411 1409 1406 1404 1402 1401 1399 1396
1442 1438 1435 1432 1430 1427 1424 1421 1418 1415 1413 1411 1409 1408 1406 1404 1401 1399 1397 1395 1393 1391
1439 1435 1431 1428 1424 1422 1419 1415 1412 1409 1407 1405 1402 1401 1400 1398 1395 1392 1391 1389 1387 1385
1435 1431 1427 1423 1419 1416 1413 1409 1406 1403 1399 1397 1395 1394 1392 1390 1387 1386 1384 1382 1381 1379